Weather History for KCHO - June, 2013

Change the Weather History Date:

Tuesday, June 11, 2013

  Actual Average Record
Temperature  
Mean Temperature 74 °F 71 °F  
Max Temperature 83 °F 82 °F 99 °F (1911)
Min Temperature 65 °F 60 °F 45 °F (1972)
Degree Days  
Heating Degree Days 0 0  
Month to date heating degree days 2 8  
Since 1 June heating degree days 2 8  
Since 1 July heating degree days 4207 4441  
Cooling Degree Days 9 6  
Month to date cooling degree days 69 57  
Year to date cooling degree days 216 143  
Since 1 June cooling degree days 69 57  
Growing Degree Days 23 (Base 50)    
Moisture  
Dew Point 62 °F    
Average Humidity 70    
Maximum Humidity 93    
Minimum Humidity 47    
Precipitation  
Precipitation 0.01 in 0.13 in 1.10 in (2004)
Month to date precipitation 5.81 1.58  
Year to date precipitation 22.44 18.05  
Sea Level Pressure  
Sea Level Pressure 29.84 in    
Wind  
Wind Speed 5 mph (WSW)    
Max Wind Speed 14 mph    
Max Gust Speed 16 mph    
Visibility 10 miles    
Events Rain    
T = Trace of Precipitation, MM = Missing Value Source: NWS Daily Summary

Daily Weather History Graph

Daily Weather History Graph

Search for Another Location

Airport or City:

Trip Planner

Search our weather history database for the weather conditions in past years. The results will help you decide how hot, cold, wet, or windy it might be!

Date:

Astronomy

Jun. 11, 2013 Rise Set
Actual Time 5:50 AM EDT 8:36 PM EDT
Civil Twilight 5:18 AM EDT 9:08 PM EDT
Nautical Twilight 4:39 AM EDT 9:47 PM EDT
Astronomical Twilight 3:54 AM EDT 10:32 PM EDT
Moon 8:29 AM EDT (6/11) 10:41 PM EDT (6/11)
Length of Visible Light 15h 49m
Length of Day
14h 46m
Waxing Crescent, 8% of the Moon is Illuminated
Jun 11
Waxing Crescent
Jun 16
First Quarter
Jun 23
Full
Jun 30
Last Quarter
Jul 8
New

Hourly Weather History & Observations

Time (EDT) Temp. Heat Index Dew Point Humidity Pressure Visibility Wind Dir Wind Speed Gust Speed Precip Events Conditions
12:53 AM 66.0 °F - 64.9 °F 96% 29.85 in 9.0 mi SSW 4.6 mph - N/A   Partly Cloudy
1:53 AM 66.0 °F - 64.9 °F 96% 29.83 in 10.0 mi Calm Calm - N/A   Partly Cloudy
2:53 AM 66.0 °F - 64.0 °F 93% 29.83 in 10.0 mi SSW 6.9 mph - N/A   Clear
3:53 AM 66.0 °F - 64.0 °F 93% 29.82 in 10.0 mi SW 4.6 mph - N/A   Partly Cloudy
4:21 AM 66.2 °F - 64.4 °F 94% 29.84 in 9.0 mi Calm Calm - N/A   Scattered Clouds
4:53 AM 66.0 °F - 64.9 °F 96% 29.83 in 10.0 mi SSW 5.8 mph - 0.01 in Rain Light Rain
5:53 AM 64.9 °F - 64.0 °F 97% 29.83 in 9.0 mi Calm Calm - 0.00 in   Scattered Clouds
6:53 AM 66.0 °F - 64.9 °F 96% 29.83 in 10.0 mi Calm Calm - N/A   Overcast
7:53 AM 71.1 °F - 64.0 °F 78% 29.84 in 10.0 mi SSW 3.5 mph - N/A   Scattered Clouds
8:53 AM 72.0 °F - 66.0 °F 81% 29.85 in 10.0 mi SSW 6.9 mph - N/A   Clear
9:53 AM 75.0 °F - 63.0 °F 66% 29.85 in 10.0 mi Variable 4.6 mph - N/A   Clear
10:53 AM 78.1 °F - 64.0 °F 62% 29.84 in 10.0 mi Variable 4.6 mph - N/A   Scattered Clouds
11:53 AM 78.1 °F - 62.1 °F 58% 29.84 in 10.0 mi Calm Calm - N/A   Mostly Cloudy
12:53 PM 79.0 °F - 61.0 °F 54% 29.84 in 10.0 mi Variable 5.8 mph - N/A   Mostly Cloudy
1:53 PM 80.1 °F 81.1 °F 61.0 °F 52% 29.84 in 10.0 mi Variable 4.6 mph - N/A   Mostly Cloudy
2:53 PM 80.1 °F 80.9 °F 60.1 °F 50% 29.83 in 10.0 mi NW 6.9 mph - N/A   Overcast
3:53 PM 81.0 °F 81.6 °F 60.1 °F 49% 29.83 in 10.0 mi Variable 5.8 mph - N/A   Scattered Clouds
4:53 PM 82.9 °F 83.7 °F 62.1 °F 49% 29.83 in 10.0 mi WNW 13.8 mph - N/A   Scattered Clouds
5:53 PM 82.0 °F 82.7 °F 61.0 °F 49% 29.82 in 10.0 mi NW 5.8 mph - N/A   Scattered Clouds
6:53 PM 81.0 °F 81.6 °F 60.1 °F 49% 29.83 in 10.0 mi Variable 5.8 mph - N/A   Clear
7:53 PM 78.1 °F - 61.0 °F 56% 29.85 in 10.0 mi Calm Calm - N/A   Clear
8:53 PM 75.0 °F - 59.0 °F 57% 29.85 in 10.0 mi West 9.2 mph - N/A   Clear
9:53 PM 75.0 °F - 57.0 °F 53% 29.87 in 10.0 mi West 6.9 mph - N/A   Clear
10:53 PM 75.0 °F - 57.9 °F 55% 29.88 in 10.0 mi SW 4.6 mph - N/A   Clear
11:53 PM 73.9 °F - 57.9 °F 57% 29.89 in 10.0 mi SSW 5.8 mph - N/A   Clear